Fortuna, CA

5:34 AM PDT on August 19, 2017 (GMT -0700)
Rohnerville

Weather History for KFOT - October, 2011

Change the Weather History Date:

Monday, October 17, 2011

  Actual Average (KEKA) Record (KEKA)
Temperature  
Mean Temperature 62 °F -  
Max Temperature 73 °F 60 °F 74 °F (1967)
Min Temperature 51 °F 47 °F 38 °F (1890)
Degree Days  
Heating Degree Days 3    
Growing Degree Days 12 (Base 50)    
Moisture  
Dew Point 56 °F    
Average Humidity 88    
Maximum Humidity 100    
Minimum Humidity 57    
Precipitation  
Precipitation 0.00 in - - ()
Sea Level Pressure  
Sea Level Pressure 30.11 in    
Wind  
Wind Speed 3 mph ()    
Max Wind Speed 12 mph    
Max Gust Speed -    
Visibility 9.2 miles    
Events      
Averages and records for this station are not official NWS values.
T = Trace of Precipitation, MM = Missing Value Source: Averaged Metar Reports

Daily Weather History Graph

Daily Weather History Graph

Search for Another Location

Airport or City:

Trip Planner

Search our weather history database for the weather conditions in past years. The results will help you decide how hot, cold, wet, or windy it might be!

Date:

Astronomy

Oct. 17, 2011 Rise Set
Actual Time 7:29 AM PDT 6:33 PM PDT
Civil Twilight 7:01 AM PDT 7:01 PM PDT
Nautical Twilight 6:30 AM PDT 7:32 PM PDT
Astronomical Twilight 5:58 AM PDT 8:04 PM PDT
Moon 10:19 PM PDT (10/17) 12:41 PM PDT (10/17)
Length of Visible Light 11h 59m
Length of Day
11h 04m
Waning Gibbous, 73% of the Moon is Illuminated
Oct 17
Waning Gibbous
Oct 19
Last Quarter
Oct 26
New
Nov 2
First Quarter
Nov 10
Full

Hourly Weather History & Observations

Time (PDT) Temp. Dew Point Humidity Pressure Visibility Wind Dir Wind Speed Gust Speed Precip Events Conditions
12:15 AM 55.4 °F 55.4 °F 100% 30.15 in 10.0 mi Calm Calm - N/A   Overcast
12:35 AM 55.4 °F 55.4 °F 100% 30.16 in 10.0 mi SE 4.6 mph - N/A   Overcast
1:15 AM 55.4 °F 53.6 °F 94% 30.16 in 10.0 mi Calm Calm - N/A   Overcast
1:35 AM 53.6 °F 53.6 °F 100% 30.16 in 10.0 mi Calm Calm - N/A   Overcast
1:55 AM 55.4 °F 53.6 °F 94% 30.17 in 10.0 mi Calm Calm - N/A   Overcast
2:15 AM 53.6 °F 53.6 °F 100% 30.17 in 10.0 mi Calm Calm - N/A   Overcast
2:35 AM 53.6 °F 53.6 °F 100% 30.17 in 10.0 mi Calm Calm - N/A   Overcast
2:55 AM 55.4 °F 53.6 °F 94% 30.16 in 10.0 mi Calm Calm - N/A   Overcast
3:15 AM 55.4 °F 53.6 °F 94% 30.16 in 10.0 mi Calm Calm - N/A   Overcast
3:35 AM 55.4 °F 53.6 °F 94% 30.16 in 10.0 mi Calm Calm - N/A   Overcast
3:55 AM 53.6 °F 53.6 °F 100% 30.15 in 10.0 mi SE 4.6 mph - N/A   Overcast
4:15 AM 53.6 °F 53.6 °F 100% 30.15 in 10.0 mi SSE 5.8 mph - N/A   Overcast
4:35 AM 53.6 °F 53.6 °F 100% 30.15 in 10.0 mi SSE 4.6 mph - N/A   Overcast
4:55 AM 53.6 °F 53.6 °F 100% 30.15 in 10.0 mi Calm Calm - N/A   Overcast
5:15 AM 53.6 °F 53.6 °F 100% 30.15 in 10.0 mi Calm Calm - N/A   Overcast
5:35 AM 53.6 °F 53.6 °F 100% 30.15 in 10.0 mi Calm Calm - N/A   Overcast
5:55 AM 53.6 °F 53.6 °F 100% 30.16 in 4.0 mi Calm Calm - N/A   Overcast
6:15 AM 53.6 °F 53.6 °F 100% 30.16 in 10.0 mi Calm Calm - N/A   Overcast
6:35 AM 53.6 °F 53.6 °F 100% 30.16 in 9.0 mi Calm Calm - N/A   Overcast
6:55 AM 53.6 °F 53.6 °F 100% 30.16 in 10.0 mi Calm Calm - N/A   Overcast
7:15 AM 53.6 °F 53.6 °F 100% 30.15 in 8.0 mi SE 5.8 mph - N/A   Overcast
7:35 AM 53.6 °F 51.8 °F 94% 30.15 in 2.5 mi SE 8.1 mph - N/A   Overcast
7:55 AM 51.8 °F 51.8 °F 100% 30.15 in 0.2 mi SE 8.1 mph - N/A   Overcast
8:15 AM 51.8 °F 51.8 °F 100% 30.15 in 0.2 mi SE 10.4 mph - N/A   Overcast
8:35 AM 51.8 °F 51.8 °F 100% 30.15 in 0.5 mi SE 10.4 mph - N/A   Overcast
8:55 AM 53.6 °F 53.6 °F 100% 30.15 in 2.5 mi SE 9.2 mph - N/A   Overcast
9:15 AM 53.6 °F 53.6 °F 100% 30.15 in 10.0 mi SE 9.2 mph - N/A   Scattered Clouds
9:35 AM 55.4 °F 53.6 °F 94% 30.15 in 10.0 mi SE 6.9 mph - N/A   Clear
9:55 AM 57.2 °F 53.6 °F 88% 30.14 in 10.0 mi SE 5.8 mph - N/A   Clear
10:15 AM 59.0 °F 53.6 °F 82% 30.14 in 10.0 mi SE 3.5 mph - N/A   Clear
10:35 AM 59.0 °F 53.6 °F 82% 30.14 in 10.0 mi SE 3.5 mph - N/A   Clear
10:55 AM 62.6 °F 55.4 °F 77% 30.14 in 10.0 mi Calm Calm - N/A   Clear
11:15 AM 64.4 °F 55.4 °F 73% 30.14 in 10.0 mi Calm Calm - N/A   Clear
11:35 AM 66.2 °F 57.2 °F 73% 30.13 in 10.0 mi Calm Calm - N/A   Clear
11:55 AM 68.0 °F 57.2 °F 68% 30.13 in 10.0 mi Calm Calm - N/A   Clear
12:15 PM 69.8 °F 57.2 °F 64% 30.12 in 10.0 mi Calm Calm - N/A   Clear
12:35 PM 71.6 °F 57.2 °F 60% 30.11 in 10.0 mi Calm Calm - N/A   Clear
12:55 PM 73.4 °F 57.2 °F 57% 30.11 in 10.0 mi Calm Calm - N/A   Clear
1:15 PM 73.4 °F 59.0 °F 61% 30.10 in 10.0 mi Calm Calm - N/A   Clear
1:35 PM 73.4 °F 59.0 °F 61% 30.09 in 10.0 mi WNW 4.6 mph - N/A   Clear
1:55 PM 71.6 °F 62.6 °F 73% 30.08 in 10.0 mi WNW 9.2 mph - N/A   Clear
2:15 PM 68.0 °F 60.8 °F 78% 30.07 in 10.0 mi NW 9.2 mph - N/A   Clear
2:35 PM 66.2 °F 59.0 °F 78% 30.07 in 10.0 mi NW 10.4 mph - N/A   Clear
2:55 PM 64.4 °F 59.0 °F 83% 30.07 in 10.0 mi NW 11.5 mph - N/A   Clear
3:15 PM 64.4 °F 57.2 °F 77% 30.06 in 10.0 mi NW 10.4 mph - N/A   Clear
3:35 PM 64.4 °F 57.2 °F 77% 30.06 in 10.0 mi NW 10.4 mph - N/A   Clear
3:55 PM 64.4 °F 57.2 °F 77% 30.06 in 10.0 mi NW 10.4 mph - N/A   Clear
4:15 PM 64.4 °F 57.2 °F 77% 30.06 in 10.0 mi NW 9.2 mph - N/A   Clear
4:35 PM 64.4 °F 57.2 °F 77% 30.06 in 10.0 mi NW 8.1 mph - N/A   Clear
4:55 PM 64.4 °F 57.2 °F 77% 30.06 in 10.0 mi NW 4.6 mph - N/A   Clear
5:15 PM 64.4 °F 57.2 °F 77% 30.05 in 10.0 mi Calm Calm - N/A   Clear
5:35 PM 62.6 °F 57.2 °F 82% 30.05 in 10.0 mi NNW 4.6 mph - N/A   Clear
5:55 PM 62.6 °F 57.2 °F 82% 30.05 in 10.0 mi Calm Calm - N/A   Clear
6:15 PM 62.6 °F 57.2 °F 82% 30.06 in 10.0 mi Calm Calm - N/A   Clear
6:35 PM 62.6 °F 57.2 °F 82% 30.05 in 10.0 mi Calm Calm - N/A   Clear
6:55 PM 60.8 °F 57.2 °F 88% 30.05 in 10.0 mi Calm Calm - N/A   Clear
7:15 PM 60.8 °F 55.4 °F 82% 30.05 in 10.0 mi Calm Calm - N/A   Clear
7:35 PM 60.8 °F 55.4 °F 82% 30.05 in 10.0 mi Calm Calm - N/A   Clear
8:15 PM 59.0 °F 57.2 °F 94% 30.05 in 10.0 mi SE 6.9 mph - N/A   Clear
8:35 PM 59.0 °F 57.2 °F 94% 30.05 in 10.0 mi SSE 6.9 mph - N/A   Clear
9:15 PM 57.2 °F 57.2 °F 100% 30.05 in 10.0 mi SSE 6.9 mph - N/A   Clear
9:35 PM 57.2 °F 57.2 °F 100% 30.05 in 10.0 mi SE 9.2 mph - N/A   Clear
10:15 PM 57.2 °F 57.2 °F 100% 30.05 in 10.0 mi SE 9.2 mph - N/A   Clear
10:35 PM 57.2 °F 57.2 °F 100% 30.04 in 10.0 mi SE 9.2 mph - N/A   Clear
10:55 PM 59.0 °F 57.2 °F 94% 30.05 in 10.0 mi SE 9.2 mph - N/A   Clear
11:15 PM 59.0 °F 57.2 °F 94% 30.05 in 10.0 mi SSE 8.1 mph - N/A   Clear
11:35 PM 59.0 °F 57.2 °F 94% 30.05 in 10.0 mi SSE 8.1 mph - N/A   Clear
11:55 PM 57.2 °F 57.2 °F 100% 30.05 in 10.0 mi SE 10.4 mph - N/A   Clear